Lubbock, TX

10:52 AM CST on November 18, 2019 (GMT -0600)
Lubbock International

Weather History for KLBB - September, 2019

Change the Weather History Date:

Thursday, September 19, 2019

  Actual Average Record
Temperature  
Mean Temperature 80 °F 70 °F  
Max Temperature 93 °F 83 °F 105 °F (1930)
Min Temperature 66 °F 58 °F 42 °F (1991)
Degree Days  
Heating Degree Days 0 1  
Month to date heating degree days 0 6  
Since 1 July heating degree days 0 6  
Cooling Degree Days 15 6  
Month to date cooling degree days 259 168  
Year to date cooling degree days 1977 1694  
Growing Degree Days 30 (Base 50)    
Moisture  
Dew Point 60 °F    
Average Humidity 56    
Maximum Humidity 87    
Minimum Humidity 30    
Precipitation  
Precipitation 0.00 in 0.09 in 1.72 in (1942)
Month to date precipitation 0.51 1.64  
Year to date precipitation 16.10 14.71  
Snow  
Snow 0.00 in 0.00 in 0.00 in (2002)
Month to date snowfall 0.0 0.0  
Since 1 July snowfall 0.0 0.0  
Since 1 September snowfall 0.0 0.0  
Snow Depth 0.00 in    
Sea Level Pressure  
Sea Level Pressure 29.84 in    
Wind  
Wind Speed 10 mph ()    
Max Wind Speed 26 mph    
Max Gust Speed 35 mph    
Visibility 10.0 miles    
Events Thunderstorm    
T = Trace of Precipitation, MM = Missing Value Source: Averaged Metar Reports

Daily Weather History Graph

Daily Weather History Graph

Search for Another Location

Airport or City:

Astronomy

Sep. 19, 2019 Rise Set
Actual Time 7:33 AM CDT 7:48 PM CDT
Civil Twilight 7:08 AM CDT 8:13 PM CDT
Nautical Twilight 6:39 AM CDT 8:42 PM CDT
Astronomical Twilight 6:09 AM CDT 9:11 PM CDT
Moon 11:13 PM CDT (9/19) 12:24 PM CDT (9/19)
Length of Visible Light 13h 04m
Length of Day
12h 15m
Waning Gibbous, 74% of the Moon is Illuminated
Sep 19
Waning Gibbous
Sep 21
Last Quarter
Sep 28
New
Oct 5
First Quarter
Oct 13
Full

Hourly Weather History & Observations

Time (CDT) Temp. Heat Index Dew Point Humidity Pressure Visibility Wind Dir Wind Speed Gust Speed Precip Events Conditions
12:53 AM 75.9 °F - 59.0 °F 56% 29.84 in 10.0 mi ESE 12.7 mph - N/A   Mostly Cloudy
1:53 AM 73.9 °F - 60.1 °F 62% 29.84 in 10.0 mi SE 11.5 mph - N/A   Mostly Cloudy
2:53 AM 73.9 °F - 60.1 °F 62% 29.84 in 10.0 mi SSE 8.1 mph - N/A   Mostly Cloudy
3:53 AM 70.0 °F - 60.1 °F 71% 29.84 in 10.0 mi ESE 5.8 mph - N/A   Mostly Cloudy
4:53 AM 68.0 °F - 60.1 °F 76% 29.84 in 10.0 mi SE 5.8 mph - N/A   Mostly Cloudy
5:53 AM 70.0 °F - 62.1 °F 76% 29.84 in 10.0 mi ESE 5.8 mph - N/A   Mostly Cloudy
6:53 AM 69.1 °F - 62.1 °F 78% 29.86 in 10.0 mi ESE 5.8 mph - N/A   Mostly Cloudy
7:53 AM 66.9 °F - 62.1 °F 84% 29.87 in 10.0 mi ESE 5.8 mph - N/A   Mostly Cloudy
8:53 AM 71.1 °F - 63.0 °F 75% 29.88 in 9.0 mi ESE 8.1 mph - N/A   Scattered Clouds
9:53 AM 78.1 °F - 64.0 °F 62% 29.87 in 10.0 mi SSE 11.5 mph - N/A   Scattered Clouds
10:53 AM 82.9 °F 84.0 °F 63.0 °F 51% 29.86 in 10.0 mi SSE 12.7 mph - N/A   Partly Cloudy
11:53 AM 87.1 °F 87.5 °F 62.1 °F 43% 29.84 in 10.0 mi SSE 11.5 mph - N/A   Scattered Clouds
12:53 PM 89.1 °F 88.8 °F 60.1 °F 38% 29.83 in 10.0 mi South 10.4 mph 19.6 mph N/A   Partly Cloudy
1:53 PM 91.9 °F 91.2 °F 59.0 °F 33% 29.81 in 10.0 mi ESE 11.5 mph - N/A   Mostly Cloudy
2:53 PM 91.9 °F 91.2 °F 59.0 °F 33% 29.78 in 10.0 mi ESE 9.2 mph 19.6 mph N/A   Scattered Clouds
3:53 PM 93.0 °F 91.7 °F 57.0 °F 30% 29.75 in 10.0 mi SSE 13.8 mph - N/A   Mostly Cloudy
4:53 PM 91.0 °F 89.7 °F 57.0 °F 32% 29.74 in 10.0 mi SE 15.0 mph - N/A   Mostly Cloudy
5:00 PM 90.0 °F 88.6 °F 57.0 °F 33% 29.90 in 10.0 mi SE 12.7 mph - N/A Thunderstorm Thunderstorm
5:53 PM 82.0 °F 81.7 °F 57.0 °F 42% 29.77 in 10.0 mi East 15.0 mph 26.5 mph N/A Thunderstorm Thunderstorm
6:19 PM 84.9 °F 84.8 °F 60.1 °F 43% 29.91 in 10.0 mi ESE 13.8 mph - N/A   Mostly Cloudy
6:53 PM 82.9 °F 83.3 °F 61.0 °F 47% 29.76 in 10.0 mi ESE 9.2 mph - N/A   Scattered Clouds
7:53 PM 82.9 °F 82.6 °F 57.9 °F 42% 29.77 in 10.0 mi SE 9.2 mph - N/A   Partly Cloudy
8:53 PM 81.0 °F 81.9 °F 62.1 °F 52% 29.80 in 10.0 mi ENE 8.1 mph - N/A   Mostly Cloudy
9:53 PM 71.1 °F - 62.1 °F 73% 29.85 in 10.0 mi NNE 17.3 mph 26.5 mph N/A   Mostly Cloudy
10:53 PM 69.1 °F - 63.0 °F 81% 29.88 in 10.0 mi NE 23.0 mph 32.2 mph N/A   Mostly Cloudy
11:44 PM 69.1 °F - 61.0 °F 75% 30.02 in 10.0 mi ENE 19.6 mph 27.6 mph N/A   Overcast
11:53 PM 69.1 °F - 61.0 °F 75% 29.87 in 10.0 mi ENE 19.6 mph 28.8 mph N/A   Overcast